Wetbulb
54.04 53.92 53.82 53.46 53.68 53.65 54.03 54.46 53.67 53.46 54.19 54.72 54.90 55.22 54.60 54.32 53.89 48.05 43.20 48.19 52.47 57.15 58.11 55.74 52.33 51.09 49.98 47.11 45.36 43.68 35.07 34.04 37.72 38.96 39.49 45.41 44.45 50.48 54.67 61.99 67.30 68.96 66.32 67.89 68.70
53.57 53.50 53.95 54.09 53.73 53.72 54.17 54.21 54.22 53.46 53.66 54.49 54.74 55.15 54.72 54.41 48.36 44.14 50.87 55.53 56.97 58.32 53.07 50.58 47.97 48.48 43.75 45.16 45.38 39.63 35.32 36.64 42.06 42.81 41.33 43.72 45.50 48.24 52.12 65.05 64.55 65.87 68.20 68.21 68.50
53.27 53.42 53.29 53.46 53.31 53.43 53.56 53.69 53.91 54.42 54.29 54.45 54.52 54.61 54.48 53.25 41.89 42.93 58.66 59.27 59.27 59.88 54.46 52.85 50.36 46.29 40.40 41.93 43.26 39.43 37.49 42.36 42.97 45.66 45.81 46.02 45.96 49.87 49.23 60.64 64.67 64.09 65.47 66.61 67.13
53.06 53.01 53.00 52.95 53.19 53.53 52.81 53.18 53.54 53.79 54.03 54.35 54.31 54.55 54.81 49.52 32.89 52.25 60.45 61.19 61.47 56.98 54.74 49.89 45.39 39.03 38.02 38.84 42.74 39.26 43.27 43.75 43.32 46.09 46.51 45.84 46.88 47.02 47.91 49.53 67.27 67.51 67.54 67.36 66.46
52.82 52.83 52.58 52.82 52.88 53.08 52.95 52.64 52.85 53.51 53.87 54.30 54.24 54.53 51.69 41.95 41.34 50.02 57.99 55.22 54.79 53.78 50.47 46.65 41.77 39.43 35.89 39.23 41.81 42.12 43.91 45.16 44.82 45.77 46.22 46.70 45.80 45.85 47.27 51.65 67.66 67.91 67.94 66.85 66.35
52.26 52.31 52.14 52.20 52.82 53.21 53.89 53.85 52.89 53.05 53.84 54.20 54.51 54.67 48.34 39.45 49.39 51.45 51.38 50.75 51.91 48.76 48.61 46.37 43.88 43.62 40.38 40.09 39.37 43.57 43.98 45.46 45.74 43.14 45.24 45.16 45.13 46.20 48.95 54.04 65.09 66.35 65.81 66.00 65.83
51.82 52.65 52.35 52.51 52.95 53.42 54.05 54.09 53.78 53.44 53.66 53.90 54.41 52.65 46.44 43.22 50.73 51.29 50.78 47.33 48.87 48.87 45.47 47.24 48.54 46.30 45.11 42.75 45.36 45.32 40.36 43.23 45.45 46.57 43.49 45.28 43.30 44.92 49.16 56.18 63.81 63.43 63.70 63.25 65.92
51.61 51.69 52.03 52.27 52.40 52.94 54.03 54.13 53.58 53.42 53.48 53.82 54.68 50.91 43.60 50.90 50.44 49.05 49.61 48.92 50.87 50.03 48.15 48.40 49.41 46.65 43.79 45.68 45.23 41.40 39.18 34.79 42.52 45.32 45.17 44.90 39.23 45.64 47.68 57.67 62.16 63.18 64.15 65.60 64.35
52.44 51.65 51.77 51.86 52.13 52.90 53.58 53.51 53.97 54.37 53.99 53.49 50.40 44.46 39.74 52.14 48.54 51.12 50.14 47.25 49.06 49.36 47.62 50.99 47.26 43.67 44.02 39.32 37.10 37.94 32.64 36.54 40.26 44.52 43.51 43.68 39.61 45.90 47.83 52.12 59.64 63.16 64.25 62.12 61.02
51.79 51.44 51.29 51.81 52.34 53.12 52.96 53.29 54.01 52.51 53.06 53.00 50.36 43.31 44.48 45.02 49.99 51.31 50.64 49.79 46.75 46.02 43.62 42.11 40.77 38.17 37.48 36.45 30.69 33.58 33.37 36.48 38.68 41.56 42.74 40.71 41.25 44.87 47.20 48.12 51.33 58.64 62.42 60.33 59.57
51.75 51.54 51.39 51.98 53.06 52.97 51.11 47.37 41.86 41.99 45.35 40.96 42.08 42.64 45.35 49.86 52.01 48.40 50.75 48.06 46.19 41.82 34.02 37.63 34.84 32.49 35.76 39.01 40.96 40.87 38.26 37.25 40.42 44.10 41.32 40.81 40.07 44.29 45.69 45.45 46.37 49.74 60.19 58.79 58.53
51.56 51.94 52.19 52.84 53.07 53.04 49.68 44.61 45.77 46.19 38.49 45.30 45.08 45.33 47.59 48.76 43.08 46.98 49.51 42.27 41.05 36.16 37.51 33.02 32.00 38.66 40.88 41.34 40.71 40.87 38.83 38.39 41.25 43.54 40.96 39.78 40.88 43.62 45.14 44.72 45.89 49.08 53.67 56.99 61.87
51.34 52.18 52.57 52.95 52.59 49.31 47.65 48.58 50.61 49.45 37.34 41.34 45.32 44.28 44.97 46.43 42.42 43.86 46.59 44.35 39.90 36.74 35.83 32.05 34.55 40.79 39.68 37.38 36.90 38.76 38.12 39.43 38.70 42.10 43.13 41.28 38.76 41.43 44.57 45.56 46.14 49.26 51.45 61.65 62.37
51.39 52.10 52.50 52.48 48.73 48.27 47.21 50.66 50.57 48.69 29.61 39.93 43.14 45.94 46.15 44.92 41.52 48.45 48.60 44.62 39.63 35.85 37.45 34.91 39.02 37.57 36.69 35.70 38.20 34.91 42.58 43.40 42.21 38.94 34.15 41.78 31.56 37.79 41.25 42.16 45.42 47.32 49.25 58.78 64.92
51.79 52.35 52.23 51.46 45.78 45.82 48.77 47.64 46.50 43.24 23.97 40.95 44.18 52.18 49.08 44.04 43.21 43.97 48.30 43.59 37.49 38.27 37.47 33.51 35.73 34.78 33.61 36.40 40.30 37.39 43.59 42.52 41.99 39.26 36.63 37.57 33.74 39.16 40.87 40.35 42.57 44.20 47.96 55.74 62.52
51.83 52.29 52.03 49.55 46.49 48.59 48.97 47.53 44.22 29.69 23.77 37.29 43.67 42.49 41.16 43.60 42.97 45.30 44.91 45.25 43.73 38.60 37.96 36.70 41.51 39.17 37.76 40.30 41.15 43.21 41.34 41.64 40.95 37.96 32.77 36.54 34.25 34.68 39.29 42.50 42.10 44.59 47.32 53.54 60.11
51.73 51.86 49.99 50.68 45.89 49.72 48.41 43.45 30.43 27.95 40.52 37.29 38.04 40.78 39.01 37.86 39.83 41.95 39.53 36.87 33.23 29.22 29.91 35.61 35.87 40.53 41.34 36.06 41.12 39.65 36.81 30.59 28.51 29.60 28.68 37.39 36.54 35.30 43.88 44.14 45.38 46.16 47.47 51.69 59.97
50.63 50.24 50.14 50.59 49.00 49.69 46.70 38.19 28.09 36.01 36.93 41.77 40.08 38.63 35.36 39.28 37.28 39.85 38.04 34.88 39.21 35.93 30.97 28.97 24.34 36.00 40.51 37.66 35.98 36.23 35.83 32.33 26.65 28.14 29.41 38.20 33.58 38.66 45.39 46.42 48.15 48.29 48.25 49.61 55.29
49.48 47.46 49.01 51.71 51.33 50.19 40.67 28.77 34.40 36.01 40.02 39.52 37.99 34.33 36.64 38.94 36.81 35.53 36.40 34.95 37.97 37.37 29.58 29.30 30.98 39.74 41.71 43.23 40.57 36.94 35.05 40.25 31.00 32.24 31.97 32.47 37.22 42.59 44.83 45.41 46.54 46.12 46.66 47.44 51.37
43.66 45.86 48.03 51.97 52.10 45.18 37.50 36.27 38.84 43.19 42.92 38.87 33.47 36.74 34.06 35.55 34.99 35.14 33.95 38.59 37.91 39.87 40.41 36.43 28.19 38.01 42.57 43.97 43.03 40.31 43.13 33.49 32.49 26.71 25.63 30.57 33.67 35.65 40.42 42.45 45.34 46.20 45.13 48.89 58.96
44.65 43.67 49.97 50.31 48.97 41.43 31.76 38.65 41.23 45.35 44.54 38.63 35.64 34.12 36.21 35.80 36.47 34.66 35.17 38.89 40.93 38.58 40.17 38.92 32.90 33.35 40.93 38.22 37.65 39.73 37.81 36.89 33.90 34.46 26.17 25.57 33.15 41.01 41.43 44.08 45.28 46.17 47.44 58.00 59.15
40.99 37.93 47.62 49.08 39.32 37.91 32.60 39.46 43.79 43.21 45.62 41.87 38.39 35.96 35.13 37.34 36.40 36.66 35.26 39.14 43.35 41.12 36.79 40.42 36.14 32.22 35.39 41.98 43.98 42.78 38.43 36.49 28.88 30.70 34.14 31.11 33.05 48.98 44.15 46.27 47.56 50.12 56.90 58.57 58.88
38.72 40.42 46.09 46.85 31.44 33.19 38.06 40.50 42.61 42.30 43.00 41.57 38.62 39.66 40.14 37.73 35.36 38.39 39.32 44.07 43.15 42.15 39.72 40.70 33.02 29.30 32.09 36.28 41.08 39.13 41.42 39.98 37.82 37.75 34.41 31.98 35.72 52.57 45.79 47.81 54.59 55.43 57.02 57.72 57.04
39.94 34.52 38.93 39.52 39.16 35.06 34.96 36.70 37.72 44.13 43.34 44.20 42.41 42.31 40.61 38.04 40.85 38.03 38.91 43.89 45.63 45.69 47.01 42.97 37.24 33.44 25.49 34.82 38.94 37.95 41.15 41.53 37.27 32.68 34.55 39.01 46.21 48.27 50.27 52.65 54.36 55.21 56.08 56.30 55.51
38.95 34.78 37.92 32.14 35.39 36.96 36.41 37.03 36.62 38.11 42.57 44.73 42.00 42.08 41.20 33.14 35.21 37.01 40.94 42.25 43.68 45.79 42.97 40.72 33.49 37.17 38.66 39.84 41.11 41.26 40.70 40.08 37.66 38.30 35.75 44.30 46.16 49.82 51.45 52.80 53.95 55.01 54.55 53.40 51.99
37.46 36.40 37.67 35.76 37.53 35.97 36.56 35.27 36.38 38.67 39.44 38.62 38.78 41.19 42.42 40.04 40.61 39.14 42.06 40.71 39.04 41.41 38.36 38.50 32.11 38.47 35.76 40.51 41.53 39.82 40.32 41.35 41.27 41.67 45.43 46.78 46.97 51.38 52.69 54.42 53.84 53.58 53.20 50.87 49.84
42.05 42.89 38.29 36.19 34.75 32.92 32.85 36.08 37.23 39.89 40.59 42.79 42.55 39.62 39.99 42.30 45.00 45.40 46.28 46.40 44.29 39.84 37.15 35.69 33.07 35.33 32.88 40.21 39.98 34.87 38.93 41.90 43.01 44.14 46.99 43.51 47.51 51.31 51.88 52.77 52.93 52.42 50.70 49.59 49.78
MSLP
1020.83 1020.40 1020.02 1019.65 1019.31 1018.91 1018.53 1018.18 1017.78 1017.47 1017.03 1016.71 1016.33 1015.93 1015.73 1015.40 1014.95 1014.69 1013.97 1011.91 1011.70 1011.26 1011.52 1011.18 1010.78 1010.58 1010.57 1010.65 1010.37 1010.20 1010.65 1009.47 1008.18 1007.19 1005.69 1004.32 1004.04 1002.91 1002.43 1001.99 1003.35 1003.41 1003.81 1005.49 1005.77
1020.78 1020.28 1019.89 1019.45 1019.00 1018.58 1018.20 1017.83 1017.46 1017.08 1016.76 1016.47 1016.11 1015.73 1015.43 1014.96 1014.47 1013.43 1011.23 1011.00 1010.78 1010.85 1011.41 1011.48 1011.09 1010.92 1010.77 1010.51 1010.16 1010.07 1009.41 1008.22 1007.15 1006.58 1005.66 1004.61 1004.08 1003.43 1003.45 1002.93 1003.23 1003.84 1003.92 1003.76 1005.63
1020.64 1020.17 1019.68 1019.26 1018.75 1018.32 1017.93 1017.55 1017.11 1016.74 1016.36 1016.14 1015.83 1015.59 1015.39 1015.04 1014.21 1011.55 1010.06 1010.21 1010.29 1010.24 1010.58 1011.26 1011.36 1011.50 1010.97 1010.35 1009.86 1009.05 1008.22 1007.87 1006.86 1006.28 1005.66 1004.40 1004.23 1003.94 1004.01 1003.57 1002.67 1002.96 1003.76 1004.12 1005.02
1020.47 1019.90 1019.34 1018.90 1018.42 1018.02 1017.55 1017.10 1016.73 1016.39 1016.04 1015.83 1015.71 1015.46 1015.11 1015.05 1013.55 1010.29 1009.82 1009.89 1009.85 1009.70 1010.02 1010.87 1011.39 1011.72 1011.08 1010.30 1009.75 1009.39 1007.92 1007.64 1007.03 1006.33 1005.50 1004.36 1004.44 1003.88 1003.33 1002.51 1002.95 1001.99 1002.83 1003.80 1004.81
1020.21 1019.60 1019.04 1018.48 1017.93 1017.38 1016.87 1016.55 1016.24 1016.03 1015.70 1015.50 1015.36 1015.18 1015.00 1014.81 1012.78 1010.62 1010.20 1010.47 1009.64 1009.76 1009.98 1010.65 1011.39 1011.54 1011.30 1010.36 1009.76 1008.99 1008.38 1007.44 1006.85 1006.19 1005.19 1005.05 1004.47 1004.26 1002.98 1001.86 1002.15 1001.78 1002.62 1002.65 1003.53
1019.91 1019.29 1018.66 1018.06 1017.36 1016.66 1016.24 1015.88 1015.62 1015.46 1015.30 1015.07 1014.98 1014.91 1014.87 1013.97 1011.10 1010.76 1010.63 1010.81 1010.18 1010.05 1010.18 1010.55 1010.57 1010.59 1010.88 1010.42 1009.90 1008.55 1008.27 1007.47 1006.58 1005.89 1005.17 1004.78 1004.68 1004.27 1001.84 1001.43 1001.80 1001.82 1002.23 1002.86 1003.31
1019.61 1018.96 1018.25 1017.54 1016.83 1016.14 1015.63 1015.29 1015.01 1014.80 1014.64 1014.59 1014.58 1014.59 1014.21 1012.05 1010.34 1010.19 1010.72 1010.61 1010.32 1010.25 1010.17 1009.85 1009.98 1010.67 1010.36 1010.11 1009.42 1008.80 1008.45 1007.38 1005.97 1005.39 1004.75 1005.07 1004.58 1002.88 1001.73 1001.86 1001.34 1002.13 1002.56 1003.27 1004.47
1019.27 1018.58 1017.89 1017.14 1016.43 1015.65 1014.93 1014.71 1014.34 1014.07 1014.02 1014.11 1014.12 1014.36 1013.03 1010.81 1010.32 1010.26 1010.08 1009.95 1009.56 1009.43 1009.59 1009.00 1009.39 1009.98 1010.12 1010.01 1009.42 1008.90 1008.24 1007.25 1005.21 1004.87 1004.55 1004.99 1003.56 1002.15 1002.10 1001.72 1001.81 1002.07 1003.09 1003.96 1005.38
1018.84 1018.05 1017.43 1016.75 1016.12 1015.38 1014.35 1013.83 1013.39 1013.19 1013.47 1013.70 1013.97 1013.97 1012.19 1010.25 1009.96 1008.87 1009.48 1009.64 1009.13 1008.91 1008.82 1008.62 1008.99 1009.78 1010.22 1010.55 1010.32 1009.12 1008.24 1006.67 1005.71 1004.11 1004.60 1004.20 1002.94 1001.85 1002.08 1001.93 1002.22 1002.16 1003.18 1004.14 1005.27
1018.32 1017.59 1016.89 1016.32 1015.71 1015.08 1014.14 1013.27 1012.81 1012.89 1013.18 1013.54 1013.41 1013.89 1011.55 1009.64 1008.70 1008.53 1008.57 1009.05 1009.04 1009.08 1009.25 1009.24 1009.62 1010.14 1010.65 1011.06 1009.95 1009.04 1008.20 1006.79 1005.14 1003.54 1003.92 1003.68 1002.68 1001.81 1002.04 1002.01 1002.43 1003.00 1003.43 1004.25 1004.90
1017.88 1017.13 1016.39 1015.73 1015.16 1014.71 1014.24 1013.66 1013.43 1013.27 1012.95 1012.24 1011.90 1011.38 1010.15 1009.11 1008.46 1007.88 1008.12 1008.81 1009.13 1009.45 1010.01 1009.91 1010.14 1010.03 1010.44 1010.31 1009.65 1008.95 1007.95 1006.71 1004.86 1003.78 1003.50 1003.27 1002.92 1002.07 1002.00 1002.07 1002.69 1003.20 1003.90 1004.28 1004.86
1017.54 1016.77 1015.89 1015.06 1014.49 1014.08 1014.26 1013.82 1013.08 1013.30 1012.16 1010.79 1010.46 1010.27 1009.66 1009.72 1009.53 1007.94 1007.61 1008.65 1009.20 1009.78 1010.11 1010.54 1009.69 1010.14 1010.22 1010.12 1009.72 1008.91 1008.11 1006.60 1004.89 1003.59 1003.53 1003.27 1002.78 1002.19 1001.89 1002.07 1002.33 1002.82 1003.64 1004.19 1005.36
1017.14 1016.39 1015.47 1014.48 1013.77 1013.78 1013.65 1012.98 1012.54 1012.51 1012.68 1010.00 1009.05 1008.76 1008.23 1008.62 1009.00 1007.94 1007.77 1008.17 1009.10 1009.97 1010.34 1010.48 1010.12 1010.01 1010.16 1009.89 1009.26 1008.40 1007.75 1006.58 1005.07 1003.44 1003.10 1003.10 1002.83 1002.45 1001.64 1001.86 1002.31 1002.33 1002.65 1003.86 1004.64
1016.84 1015.92 1015.17 1014.26 1013.59 1013.45 1013.15 1012.78 1012.40 1012.39 1012.41 1010.04 1008.15 1007.47 1007.57 1007.73 1007.88 1007.13 1007.27 1007.88 1008.82 1009.62 1010.50 1010.33 1009.79 1009.66 1009.39 1009.27 1008.85 1007.82 1007.24 1006.38 1005.09 1004.37 1003.25 1002.54 1003.05 1002.43 1001.69 1001.94 1002.29 1002.77 1002.83 1003.58 1004.58
1016.27 1015.61 1014.74 1014.52 1014.17 1013.53 1012.80 1012.41 1012.40 1012.75 1012.06 1010.05 1008.50 1007.81 1007.89 1008.65 1007.76 1006.94 1007.04 1007.46 1008.30 1009.50 1010.72 1010.02 1009.38 1008.95 1008.71 1008.33 1008.26 1007.53 1007.21 1006.45 1005.68 1004.66 1003.14 1002.67 1003.11 1001.86 1001.88 1002.23 1002.33 1002.61 1002.68 1003.27 1003.90
1015.63 1015.02 1014.49 1014.23 1014.22 1012.60 1012.24 1012.28 1012.53 1012.94 1011.83 1010.24 1009.09 1008.53 1008.48 1008.26 1008.04 1007.44 1007.18 1007.64 1008.00 1009.05 1010.39 1009.88 1009.38 1008.86 1007.89 1007.77 1007.63 1007.66 1007.27 1006.43 1005.83 1004.67 1003.43 1002.15 1002.38 1002.33 1001.55 1000.62 1002.22 1002.66 1002.67 1002.92 1003.67
1015.08 1014.04 1014.19 1013.48 1012.82 1012.01 1012.33 1012.76 1012.98 1013.14 1012.42 1010.91 1009.80 1009.36 1009.30 1008.78 1008.11 1007.75 1007.62 1007.97 1008.29 1009.03 1009.74 1008.85 1008.10 1007.53 1007.58 1007.54 1007.37 1008.13 1007.99 1006.53 1005.49 1004.43 1003.19 1001.91 1002.15 1001.13 1000.22 1000.98 1001.63 1002.54 1002.93 1003.09 1003.55
1014.49 1013.38 1013.01 1012.25 1011.43 1012.16 1012.86 1013.17 1013.53 1013.38 1012.76 1011.63 1010.53 1010.04 1009.58 1009.34 1009.07 1008.33 1008.25 1008.20 1008.30 1008.50 1008.98 1008.32 1007.00 1006.28 1005.90 1006.62 1007.55 1008.22 1008.47 1006.79 1004.60 1003.66 1002.94 1002.10 1001.32 1000.36 999.85 1000.53 1001.15 1001.97 1002.60 1003.26 1003.83
1013.83 1013.08 1012.81 1011.24 1011.07 1012.12 1013.14 1013.97 1014.58 1013.70 1013.01 1011.91 1011.09 1010.72 1009.67 1009.71 1009.75 1009.30 1008.25 1007.64 1007.62 1008.49 1008.64 1007.97 1006.46 1005.22 1005.08 1005.71 1007.49 1008.19 1007.64 1004.88 1004.52 1003.10 1003.01 1002.27 1001.17 1000.15 1000.30 1000.82 1001.30 1002.16 1002.84 1003.61 1003.93
1014.98 1014.27 1012.50 1010.81 1011.20 1012.23 1013.64 1014.23 1013.85 1013.25 1012.37 1012.49 1012.17 1011.72 1010.87 1010.37 1010.13 1009.27 1007.96 1007.00 1007.09 1007.14 1007.30 1007.81 1006.98 1005.62 1005.46 1005.91 1007.00 1006.93 1006.20 1005.38 1004.31 1003.50 1003.28 1002.48 1001.23 1000.47 1000.65 1000.79 1001.36 1002.31 1003.31 1004.46 1005.16
1015.30 1014.63 1012.15 1011.12 1011.55 1013.11 1014.00 1013.83 1013.22 1012.17 1012.13 1012.58 1012.66 1012.37 1011.68 1010.78 1009.93 1008.89 1007.57 1006.32 1006.21 1006.42 1007.10 1007.74 1008.29 1006.23 1005.50 1006.31 1006.14 1006.11 1005.77 1004.73 1003.59 1002.89 1002.67 1002.32 1001.02 999.68 999.98 1000.52 1001.61 1002.74 1003.99 1005.14 1006.03
1016.80 1015.42 1012.37 1011.45 1013.09 1014.28 1014.33 1013.56 1012.56 1011.90 1011.71 1012.28 1012.76 1012.73 1011.92 1010.87 1009.84 1008.52 1007.28 1005.85 1005.42 1006.06 1006.67 1007.37 1007.90 1007.85 1006.16 1005.16 1005.55 1005.25 1004.72 1004.18 1003.83 1003.12 1002.60 1002.04 1002.04 1000.40 999.82 1000.37 1001.67 1003.62 1004.87 1005.98 1006.80
1017.79 1016.07 1012.93 1012.83 1014.82 1015.43 1014.58 1013.74 1012.73 1011.87 1011.49 1011.69 1011.75 1011.76 1011.30 1010.63 1009.87 1008.27 1006.53 1005.30 1005.41 1005.77 1006.20 1006.93 1007.92 1007.01 1006.37 1006.15 1006.30 1005.18 1003.54 1002.98 1003.03 1002.87 1003.01 1002.73 1002.44 1000.71 999.91 1001.02 1002.45 1004.24 1005.53 1006.59 1007.38
1018.19 1017.60 1016.20 1015.66 1015.96 1016.29 1015.90 1014.37 1013.06 1011.87 1011.46 1011.37 1011.26 1010.94 1010.47 1010.02 1009.40 1008.18 1006.62 1005.96 1005.53 1005.38 1005.97 1006.34 1007.37 1006.92 1005.93 1005.44 1005.10 1003.93 1002.48 1002.06 1002.61 1002.53 1002.56 1002.41 1002.66 1002.44 1001.47 1002.35 1003.75 1004.88 1006.07 1007.09 1008.01
1018.96 1019.63 1019.03 1018.23 1017.08 1016.91 1016.22 1014.88 1013.76 1012.38 1011.57 1010.88 1010.68 1010.15 1009.87 1009.78 1009.32 1008.27 1006.74 1006.17 1005.91 1005.85 1006.31 1006.32 1006.72 1006.42 1005.54 1005.12 1004.41 1002.85 1001.90 1001.42 1001.25 1001.31 1001.62 1002.94 1002.88 1003.76 1002.74 1003.12 1004.39 1005.53 1006.65 1007.50 1008.91
1020.55 1020.60 1019.66 1018.99 1017.97 1017.30 1016.26 1015.45 1014.34 1013.02 1011.85 1010.87 1010.49 1009.65 1009.15 1008.95 1008.57 1007.84 1007.52 1006.51 1006.25 1006.37 1006.62 1006.92 1007.35 1006.43 1005.93 1004.79 1003.88 1002.65 1001.35 1000.72 1000.73 1001.00 1001.73 1003.23 1003.85 1004.54 1004.62 1004.22 1005.31 1006.13 1006.93 1008.29 1009.75
1021.05 1020.49 1020.37 1018.99 1018.42 1017.70 1016.96 1015.92 1014.67 1013.44 1011.85 1011.15 1010.31 1009.33 1008.32 1007.72 1007.37 1006.86 1006.80 1006.71 1006.78 1006.55 1007.05 1007.32 1007.23 1006.70 1006.09 1004.25 1004.11 1002.33 1000.79 1000.70 1000.67 1001.01 1001.50 1002.71 1004.02 1004.79 1005.37 1005.81 1005.82 1006.81 1007.94 1008.99 1010.16
Wind_Speed
19 19 19 18 18 18 18 19 19 18 17 17 18 16 14 18 19 9 8 12 10 20 15 6 5 6 1 4 5 4 3 9 10 11 5 7 3 4 5 8 7 3 26 17 19
20 20 20 20 20 19 18 19 19 18 16 16 17 16 15 19 16 8 14 14 18 17 10 9 9 7 2 4 5 6 7 8 5 5 6 6 6 11 2 3 5 13 12 28 20
21 21 21 21 21 19 20 19 19 19 17 15 16 15 14 12 5 7 5 10 14 13 13 10 8 4 3 2 5 5 9 12 4 8 10 14 7 5 4 3 17 24 22 24 22
21 22 22 22 22 21 21 19 20 19 18 15 14 15 14 4 5 2 8 13 12 6 7 7 5 2 4 6 3 5 3 10 5 8 10 12 6 8 9 10 16 29 28 22 20
22 22 23 22 22 22 21 21 20 18 18 15 13 14 6 2 12 9 16 15 11 1 9 7 5 4 5 3 6 10 6 7 9 15 19 7 10 7 15 14 21 25 25 29 25
23 23 23 24 23 22 20 19 17 16 16 14 12 11 5 11 5 6 5 11 7 4 2 7 7 11 6 7 6 4 7 10 11 12 13 12 8 4 18 14 27 28 25 22 23
24 23 25 24 24 23 21 19 16 16 15 13 12 7 7 20 4 9 13 5 4 4 5 6 10 4 4 6 4 8 10 11 12 17 13 6 10 18 17 4 22 20 19 14 9
25 26 25 25 25 24 24 21 19 15 12 10 10 4 9 6 6 9 10 7 8 9 6 11 8 5 3 4 6 3 3 4 6 13 6 10 14 15 1 11 17 21 16 13 7
25 26 26 26 24 24 26 23 21 13 8 5 2 4 9 9 4 9 10 8 3 4 5 7 6 5 2 2 5 3 4 8 7 8 5 13 10 16 5 6 10 17 15 12 10
27 27 26 23 24 22 23 23 3 2 4 6 4 3 5 3 6 6 6 9 3 2 6 2 3 3 2 4 10 7 5 5 13 6 12 11 11 7 8 7 10 9 12 14 12
29 27 26 24 23 17 11 5 6 4 2 8 6 8 16 8 14 4 6 5 2 3 3 4 2 9 9 9 13 10 10 7 6 10 7 14 5 11 6 4 9 9 8 7 11
30 28 26 25 22 18 1 1 5 3 11 13 17 18 20 9 9 11 4 5 5 4 3 1 15 7 8 12 13 13 13 14 12 8 7 8 10 9 6 4 8 11 10 10 10
29 26 24 25 23 2 3 2 4 4 3 10 6 6 7 12 12 12 4 5 4 4 6 9 5 13 13 11 13 14 11 12 10 6 8 8 3 5 5 5 6 6 10 16 21
28 25 21 23 3 4 2 4 3 4 3 11 1 1 3 5 7 11 9 7 4 8 2 8 9 15 13 15 14 12 13 14 15 8 8 9 7 5 6 4 6 8 9 11 16
28 23 20 7 4 3 3 2 3 5 4 13 4 5 12 12 8 1 1 3 8 7 5 6 6 13 15 14 13 9 10 12 13 12 5 5 7 10 5 5 7 8 9 12 14
29 24 15 3 1 7 3 4 4 7 6 9 6 15 12 6 6 6 3 2 1 7 1 10 7 5 8 14 15 11 10 13 12 6 8 8 8 6 9 16 5 4 7 10 13
31 27 9 2 5 4 2 3 6 6 10 9 14 15 14 6 6 9 14 4 5 5 6 11 16 8 9 5 8 12 10 4 5 4 6 8 9 8 16 8 9 9 8 10 15
31 24 4 6 5 4 3 6 6 4 6 10 11 20 4 6 4 4 5 12 9 4 1 3 7 12 12 9 5 9 5 3 5 6 6 9 9 10 12 9 11 11 11 10 11
20 4 3 6 5 4 6 7 6 4 11 11 15 4 1 3 3 4 4 4 7 16 7 4 6 5 9 13 14 7 9 13 2 1 7 4 2 7 7 9 9 10 9 10 11
3 5 5 6 7 5 6 1 4 5 7 1 4 5 4 8 4 3 3 4 5 9 13 3 5 2 12 16 11 10 8 6 2 9 7 3 5 7 11 10 11 13 10 10 16
4 5 6 3 5 6 2 3 5 12 2 2 3 5 5 5 4 3 6 3 8 3 7 4 3 9 8 7 7 6 5 5 1 6 6 7 8 6 9 13 14 12 12 19 19
4 3 4 5 6 2 4 8 4 11 1 3 1 2 5 5 6 5 4 3 9 7 6 5 4 4 2 5 16 11 2 2 3 3 2 6 5 8 9 17 17 16 19 20 22
4 4 4 7 3 4 8 7 4 6 7 1 5 7 6 4 5 7 5 3 8 3 6 6 2 3 2 5 6 6 6 5 2 1 1 7 6 9 9 17 23 24 22 20 23
3 6 7 6 2 2 6 7 13 7 4 7 5 5 5 5 3 8 2 5 0 6 9 4 4 4 4 2 5 6 5 6 5 2 4 1 10 7 22 26 24 24 24 22 21
5 2 1 6 6 11 5 7 11 13 2 8 3 15 9 3 4 8 3 1 4 4 3 4 0 3 4 7 2 6 10 6 4 5 6 9 19 9 19 26 25 24 23 24 21
3 3 4 5 7 8 6 8 11 14 4 12 9 17 8 3 5 9 6 2 1 0 2 2 2 2 2 10 2 10 7 5 5 2 9 15 14 3 6 21 23 23 24 23 21
4 4 3 5 6 5 4 9 16 12 8 12 9 9 7 10 11 14 9 8 5 6 3 1 2 4 4 8 4 5 6 6 5 4 9 13 9 8 15 17 22 22 22 23 21
Wind_Direction
346 342 338 336 331 329 327 324 321 321 318 318 317 313 322 316 310 301 250 220 202 240 276 278 289 290 288 241 210 156 197 220 216 203 248 287 336 226 310 199 86 266 169 161 152
342 339 335 331 328 326 324 322 319 318 316 314 314 320 327 318 314 241 243 236 239 253 257 261 295 329 259 242 212 172 210 227 207 231 264 281 231 290 333 33 82 98 135 141 139
338 335 332 328 326 325 321 319 315 311 311 310 313 321 315 318 307 248 242 211 232 254 233 232 261 312 237 216 241 211 229 233 282 242 267 270 318 332 281 197 157 143 149 149 140
335 333 330 328 323 321 317 311 311 310 306 305 307 305 309 338 307 238 152 345 317 315 141 165 220 242 250 221 267 281 254 241 305 289 266 273 304 309 288 254 207 153 157 151 147
334 332 331 327 322 317 313 310 307 301 299 300 295 298 310 278 248 288 302 338 308 208 156 171 196 171 253 268 344 246 285 279 234 255 267 292 279 293 283 293 173 158 161 165 169
334 332 330 327 320 314 309 302 302 294 291 293 289 288 261 263 233 255 295 331 307 359 283 149 211 198 261 239 201 281 312 282 251 257 264 258 295 287 279 298 179 164 163 169 172
333 327 327 326 321 318 312 307 301 294 288 284 280 267 250 245 240 306 310 273 228 254 277 219 211 250 161 307 342 289 274 280 256 243 256 132 268 245 261 250 146 158 174 170 120
333 330 329 327 324 321 314 311 302 291 281 272 262 229 256 260 254 279 263 270 249 229 238 256 157 156 155 299 334 294 202 241 248 225 234 167 253 257 270 184 173 153 162 148 125
330 330 330 329 326 324 317 314 304 276 254 213 205 160 258 313 238 249 213 241 283 297 265 286 134 154 45 32 333 248 249 226 294 200 208 183 232 246 164 167 151 148 151 145 137
333 332 330 329 325 323 318 318 343 47 162 175 252 234 265 264 324 225 172 195 203 318 355 57 34 145 71 149 220 216 209 247 222 200 199 218 233 265 157 148 158 175 162 155 151
335 334 332 327 323 321 332 359 7 2 269 199 195 226 293 297 319 223 172 176 234 132 183 273 202 218 210 232 248 274 286 272 286 240 159 214 230 227 183 149 151 176 167 171 163
335 335 333 326 322 320 182 337 133 224 302 258 248 250 249 275 299 304 167 139 162 201 201 274 229 219 231 242 253 256 266 269 286 238 175 175 224 237 168 165 175 166 164 173 135
334 335 332 325 321 70 189 318 105 97 279 293 212 217 229 184 223 262 201 136 173 215 217 232 272 217 237 270 261 242 246 255 249 255 200 125 278 205 217 162 149 211 159 143 151
334 333 335 330 2 323 255 12 84 97 54 359 233 17 46 213 218 230 208 162 155 203 294 256 237 232 227 235 248 246 237 250 267 266 202 169 208 252 219 195 160 193 160 145 146
332 333 329 318 277 323 251 19 59 65 60 329 350 356 359 314 315 335 120 144 203 153 115 254 258 211 224 228 232 239 239 247 273 258 159 148 108 230 110 217 210 201 190 145 148
331 330 333 75 232 234 206 68 59 45 346 339 312 330 304 290 266 269 168 131 118 122 173 244 250 254 219 228 229 237 308 266 264 221 223 180 126 228 211 208 134 165 202 141 143
329 322 308 210 244 146 79 38 32 61 324 319 317 320 318 286 272 244 239 215 183 167 235 252 244 217 195 227 225 198 265 252 161 153 194 184 159 212 220 157 163 165 185 138 150
325 317 207 215 226 156 51 29 41 350 267 300 312 313 214 2 317 310 217 227 212 227 319 278 316 182 176 201 117 192 205 249 114 148 156 165 202 215 194 152 154 155 166 130 154
325 330 299 267 218 102 53 37 329 322 293 305 320 284 288 64 353 327 258 217 192 194 190 251 240 151 157 144 133 186 200 221 303 112 123 195 147 121 126 154 161 164 136 146 165
355 335 281 289 113 69 59 259 285 255 304 281 312 326 313 347 310 261 260 205 222 179 199 114 303 261 122 104 157 228 335 190 245 162 129 193 163 186 175 172 170 168 147 92 97
29 24 275 344 69 40 83 227 247 330 337 249 296 292 308 303 289 289 277 254 197 124 112 113 92 302 135 157 190 172 239 231 73 178 146 139 205 203 170 163 168 159 115 115 107
2 18 296 35 42 352 328 299 305 329 99 142 280 254 253 299 305 292 244 264 182 142 137 159 151 275 322 72 181 274 261 199 131 106 53 117 293 309 188 171 142 118 116 114 112
346 272 323 62 53 322 304 303 296 323 332 270 236 215 256 274 300 261 236 181 126 107 160 173 149 284 53 42 34 285 267 211 265 330 161 124 251 328 151 125 120 118 117 114 112
28 0 332 18 57 345 318 317 336 331 332 320 267 261 251 321 274 303 345 42 111 119 108 109 158 213 169 171 176 223 228 231 189 114 172 149 120 54 119 119 119 118 120 118 114
26 339 138 310 321 326 302 342 336 346 5 340 305 340 334 102 307 309 333 174 31 34 78 143 129 251 174 243 315 211 273 188 134 198 95 147 116 106 124 123 125 123 119 116 116
60 8 334 269 289 322 359 333 334 341 307 332 353 337 319 296 284 308 324 288 161 165 67 348 215 292 72 259 139 248 250 172 75 78 94 126 103 129 107 117 123 125 124 118 121
315 310 115 279 321 358 312 316 320 338 300 328 331 331 310 319 302 272 227 265 281 155 141 74 124 43 274 141 227 317 229 116 59 52 137 146 144 142 130 129 133 127 123 124 124